Location: Dompnac
(44.5644°N, 4.1026°E)
Time: 21:01:46
(UTC+00:00)

MOS 1 - Pass Details

Date: 19 September 2020
Orbit: 878 x 891 km, 99.1° (Epoch: 27 October)

Event Time Altitude Azimuth Distance (km) Brightness Sun altitude
Exits shadow 19:21:43 17° 154° (SSE) 2,119 5.9 -17.5°
Maximum altitude 19:26:15 74° 73° (ENE) 931 4.2 -18.3°
Drops below altitude 10° 19:31:57 10° 349° (N) 2,570 7.1 -19.2°
Sets 19:34:22 0° 348° (NNW) 3,514 7.9 -19.6°
